TimeCST,TemperatureF,Dew PointF,Humidity,Sea Level PressureIn,VisibilityMPH,Wind Direction,Wind SpeedMPH,Gust SpeedMPH,PrecipitationIn,Events,Conditions,WindDirDegrees,DateUTC
12:15 AM,23.0,19.4,86,29.92,1.5,SE,16.1,21.9,N/A,Snow,Light Snow,130,2013-03-04 06:15:00
12:35 AM,23.0,19.4,86,29.91,1.8,SE,16.1,24.2,N/A,Snow,Light Snow,130,2013-03-04 06:35:00
12:55 AM,23.0,21.2,93,29.91,1.0,ESE,16.1,20.7,N/A,Snow,Snow,120,2013-03-04 06:55:00
1:15 AM,23.0,21.2,93,29.89,1.0,ESE,17.3,-,N/A,Snow,Snow,120,2013-03-04 07:15:00
1:55 AM,23.0,21.2,93,29.89,0.8,ESE,13.8,24.2,N/A,Snow,Snow,120,2013-03-04 07:55:00
2:15 AM,23.0,21.2,93,29.87,1.0,ESE,15.0,21.9,N/A,Snow,Snow,120,2013-03-04 08:15:00
2:35 AM,23.0,21.2,93,29.86,1.0,ESE,17.3,24.2,N/A,Snow,Light Snow,120,2013-03-04 08:35:00
2:55 AM,23.0,21.2,93,29.85,1.5,ESE,17.3,26.5,N/A,Snow,Light Snow,120,2013-03-04 08:55:00
3:55 AM,23.0,21.2,93,29.84,1.5,ESE,17.3,24.2,N/A,Snow,Light Snow,110,2013-03-04 09:55:00
4:15 AM,23.0,21.2,93,29.83,1.0,ESE,18.4,24.2,N/A,Snow,Snow,110,2013-03-04 10:15:00
4:35 AM,23.0,21.2,93,29.83,2.0,ESE,19.6,25.3,N/A,Snow,Light Snow,110,2013-03-04 10:35:00
4:55 AM,23.0,21.2,93,29.83,4.0,ESE,17.3,28.8,N/A,Snow,Light Snow,110,2013-03-04 10:55:00
5:15 AM,23.0,21.2,93,29.82,7.0,ESE,20.7,26.5,N/A,Snow,Light Snow,110,2013-03-04 11:15:00
5:35 AM,23.0,21.2,93,29.83,10.0,ESE,19.6,23.0,N/A,,Overcast,110,2013-03-04 11:35:00
5:55 AM,24.8,21.2,86,29.82,10.0,ESE,19.6,25.3,N/A,,Overcast,110,2013-03-04 11:55:00
6:15 AM,24.8,21.2,86,29.82,10.0,ESE,19.6,26.5,N/A,,Overcast,110,2013-03-04 12:15:00
6:35 AM,24.8,21.2,86,29.83,10.0,ESE,16.1,25.3,N/A,,Overcast,110,2013-03-04 12:35:00
6:55 AM,24.8,21.2,86,29.83,10.0,ESE,17.3,27.6,N/A,,Overcast,110,2013-03-04 12:55:00
7:15 AM,24.8,21.2,86,29.83,10.0,ESE,17.3,25.3,N/A,,Overcast,110,2013-03-04 13:15:00
7:35 AM,24.8,21.2,86,29.84,10.0,ESE,16.1,24.2,N/A,,Overcast,110,2013-03-04 13:35:00
7:55 AM,24.8,21.2,86,29.84,10.0,ESE,17.3,26.5,N/A,,Overcast,110,2013-03-04 13:55:00
8:15 AM,24.8,21.2,86,29.84,7.0,ESE,15.0,26.5,N/A,,Overcast,110,2013-03-04 14:15:00
8:35 AM,24.8,21.2,86,29.85,7.0,ESE,16.1,23.0,N/A,,Overcast,110,2013-03-04 14:35:00
8:55 AM,24.8,21.2,86,29.84,7.0,ESE,17.3,24.2,N/A,,Overcast,110,2013-03-04 14:55:00
9:15 AM,26.6,21.2,80,29.84,7.0,ESE,18.4,24.2,N/A,,Overcast,120,2013-03-04 15:15:00
9:35 AM,26.6,21.2,80,29.84,7.0,ESE,18.4,26.5,N/A,,Overcast,110,2013-03-04 15:35:00
9:55 AM,26.6,21.2,80,29.84,7.0,ESE,21.9,27.6,N/A,,Overcast,120,2013-03-04 15:55:00
10:15 AM,26.6,23.0,86,29.84,7.0,ESE,18.4,25.3,N/A,,Overcast,120,2013-03-04 16:15:00
10:35 AM,26.6,23.0,86,29.85,7.0,ESE,24.2,27.6,N/A,,Overcast,120,2013-03-04 16:35:00
10:55 AM,28.4,23.0,80,29.85,7.0,ESE,18.4,25.3,N/A,,Overcast,120,2013-03-04 16:55:00
11:15 AM,28.4,23.0,80,29.85,7.0,ESE,17.3,25.3,N/A,,Overcast,120,2013-03-04 17:15:00
11:35 AM,28.4,23.0,80,29.85,5.0,ESE,19.6,26.5,N/A,,Haze,120,2013-03-04 17:35:00
11:55 AM,28.4,23.0,80,29.86,5.0,ESE,16.1,23.0,N/A,,Haze,120,2013-03-04 17:55:00
12:15 PM,28.4,23.0,80,29.86,5.0,ESE,16.1,23.0,N/A,,Haze,120,2013-03-04 18:15:00
12:55 PM,28.4,23.0,80,29.84,7.0,ESE,15.0,21.9,N/A,,Overcast,120,2013-03-04 18:55:00
1:15 PM,28.4,23.0,80,29.84,7.0,ESE,17.3,20.7,N/A,,Overcast,110,2013-03-04 19:15:00
1:35 PM,28.4,23.0,80,29.84,7.0,ESE,15.0,20.7,N/A,,Overcast,120,2013-03-04 19:35:00
1:55 PM,28.4,23.0,80,29.85,7.0,ESE,13.8,19.6,N/A,,Overcast,120,2013-03-04 19:55:00
2:15 PM,30.2,23.0,75,29.85,7.0,ESE,12.7,-,N/A,,Overcast,120,2013-03-04 20:15:00
2:35 PM,28.4,23.0,80,29.86,7.0,ESE,11.5,18.4,N/A,,Overcast,120,2013-03-04 20:35:00
2:55 PM,30.2,23.0,75,29.86,7.0,ESE,10.4,17.3,N/A,,Overcast,120,2013-03-04 20:55:00
3:15 PM,28.4,23.0,80,29.87,7.0,East,12.7,-,N/A,,Overcast,100,2013-03-04 21:15:00
3:35 PM,28.4,23.0,80,29.87,10.0,East,12.7,-,N/A,,Overcast,100,2013-03-04 21:35:00
3:55 PM,28.4,23.0,80,29.86,10.0,ESE,12.7,18.4,N/A,,Overcast,110,2013-03-04 21:55:00
4:15 PM,28.4,23.0,80,29.86,10.0,ESE,11.5,-,N/A,,Overcast,110,2013-03-04 22:15:00
4:35 PM,28.4,23.0,80,29.87,10.0,ESE,13.8,17.3,N/A,,Overcast,110,2013-03-04 22:35:00
4:55 PM,30.2,23.0,75,29.88,10.0,ESE,13.8,-,N/A,,Overcast,120,2013-03-04 22:55:00
5:15 PM,30.2,23.0,75,29.88,10.0,East,11.5,-,N/A,,Overcast,100,2013-03-04 23:15:00
5:35 PM,28.4,23.0,80,29.88,10.0,ESE,12.7,-,N/A,,Overcast,110,2013-03-04 23:35:00
5:55 PM,28.4,23.0,80,29.88,10.0,ESE,11.5,20.7,N/A,,Overcast,110,2013-03-04 23:55:00
6:15 PM,28.4,23.0,80,29.89,10.0,ESE,15.0,20.7,N/A,,Overcast,110,2013-03-05 00:15:00
6:35 PM,28.4,23.0,80,29.89,10.0,ESE,15.0,18.4,N/A,,Overcast,110,2013-03-05 00:35:00
6:55 PM,28.4,23.0,80,29.92,7.0,ESE,10.4,-,N/A,Snow,Light Snow,110,2013-03-05 00:55:00
7:15 PM,28.4,23.0,80,29.92,10.0,ESE,10.4,-,N/A,,Overcast,120,2013-03-05 01:15:00
7:35 PM,28.4,23.0,80,29.94,10.0,SE,10.4,-,N/A,,Overcast,130,2013-03-05 01:35:00
7:55 PM,28.4,23.0,80,29.93,10.0,ESE,8.1,-,N/A,Snow,Light Snow,120,2013-03-05 01:55:00
8:35 PM,28.4,23.0,80,29.96,2.5,SE,6.9,-,N/A,Snow,Light Snow,130,2013-03-05 02:35:00
8:55 PM,28.4,23.0,80,29.97,10.0,SE,8.1,-,N/A,Snow,Light Snow,140,2013-03-05 02:55:00
9:15 PM,28.4,23.0,80,29.97,7.0,ESE,4.6,-,N/A,Snow,Light Snow,120,2013-03-05 03:15:00
9:35 PM,28.4,24.8,86,29.96,5.0,ESE,4.6,-,N/A,,Overcast,110,2013-03-05 03:35:00
9:55 PM,28.4,24.8,86,29.96,5.0,ESE,5.8,-,N/A,,Overcast,110,2013-03-05 03:55:00
10:15 PM,28.4,24.8,86,29.96,4.0,ESE,4.6,-,N/A,Snow,Light Snow,120,2013-03-05 04:15:00
10:35 PM,26.6,24.8,93,29.96,5.0,ESE,3.5,-,N/A,,Overcast,120,2013-03-05 04:35:00
10:55 PM,26.6,24.8,93,29.96,5.0,ESE,3.5,-,N/A,Snow,Light Snow,120,2013-03-05 04:55:00
11:15 PM,26.6,24.8,93,29.94,1.5,East,3.5,-,0.01,Snow,Light Snow,100,2013-03-05 05:15:00
11:35 PM,26.6,24.8,93,29.94,5.0,East,5.8,-,0.01,Snow,Light Snow,100,2013-03-05 05:35:00
11:55 PM,26.6,24.8,93,29.93,3.0,ESE,3.5,-,0.01,Snow,Light Snow,120,2013-03-05 05:55:00